User: anonymous   Login
Location: Caltech
(34.1382°N, 118.1253°W)
Time: 17:45:05
(UTC-08:00)
Language:

ADEOS II - Orbit

View from above orbital plane
View from above orbital plane
View from above satellite
View from above satellite

Ground track
Ground track

The orbit data is extracted from the following two-line orbital elements,

1 27597U 02056A   17052.45120690  .00000071  00000-0  45793-4 0  9995
2 27597  98.3551  27.0170 0000862  32.4336 327.6898 14.27268174738910
Epoch (UTC): 21 February 2017 10:49:44
Eccentricity: 0.0000862
inclination: 98.3551°
perigee height: 800 km
apogee height: 801 km
right ascension of ascending node: 27.0170°
argument of perigee: 32.4336°
revolutions per day: 14.27268174
mean anomaly at epoch: 327.6898°
orbit number at epoch: 73891

The dashed part of the orbit path shows where the satellite is in the earth's shadow,  

DLR